User: anonymous   Login
Location: Unspecified
(0.0000°N, 0.0000°E)
Time: 13:26:26
(UTC+00:00)
Language:

NOAA 19 - Orbit

View from above orbital plane
View from above orbital plane
View from above satellite
View from above satellite

Ground track
Ground track

The orbit data is extracted from the following two-line orbital elements,

1 33591U 09005A   19294.93779169 +.00000010 +00000-0 +30636-4 0  9994
2 33591 099.1892 289.1445 0014488 030.8279 329.3739 14.12380475551325
Epoch (UTC): 21 October 2019 22:30:25
Eccentricity: 0.0014488
inclination: 99.1892°
perigee height: 841 km
apogee height: 862 km
right ascension of ascending node: 289.1445°
argument of perigee: 30.8279°
revolutions per day: 14.12380475
mean anomaly at epoch: 329.3739°
orbit number at epoch: 55132

The dashed part of the orbit path shows where the satellite is in the earth's shadow,  

DLR